Home > Weather > Vellore > Past weeks

Flag for India Past Weather in Vellore, Tamil Nadu, India — Yesterday and Last 2 Weeks

Now
99 °F

Scattered clouds.


Feels Like: 115 °F
Forecast: 80 / 101 °F
Wind: 9 mph from West

Location: Madras / Minambakkam

Current Time: May 27, 2016 at 2:13:18 PM

Latest Report: May 27, 2016 at 1:30 PM


Visibility: 4 mi

Pressure: 29.65 "Hg

Humidity: 50%

Dew Point: 77 °F

Location of VelloreLocation

Past Weather in Vellore — Graph

°F

Vellore Temperature Yesterday

Maximum temperature yesterday: 104 °F (at 2:00 PM)
Minimum temperature yesterday: 86 °F (at 4:00 AM)
Average temperature yesterday: 93 °F

High & Low Weather Summary for the Past Weeks

 TemperatureHumidityPressure
High106 °F (May 25, 2:30 PM)100% (May 17, 6:00 AM)29.80 "Hg (May 17, 6:00 AM)
Low77 °F (May 17, 6:00 AM)30% (May 25, 3:00 PM)29.42 "Hg (May 18, 1:30 AM)
Average89 °F69%29.62 "Hg
* Reported May 12 12:30 PM — May 27 1:00 PM, Vellore, Weather by CustomWeather, © 2016

Note: Actual official high and low records may vary slightly from our data, if they occured in-between our weather recording intervals... More about our weather records

Advertising

Vellore Weather History for the Previous 24 Hours

Scroll right to see more
 ConditionsComfort  
Time TempWeatherWind HumidityBarometerVisibility
1:00 PM
Fri, May 27
99 °FScattered clouds.9 mph50%29.65 "Hg4 mi
12:30 PM97 °FScattered clouds.12 mph50%29.68 "Hg4 mi
12:00 PM97 °FScattered clouds.12 mph53%29.68 "Hg4 mi
11:30 AM95 °FPartly sunny.7 mph56%29.68 "Hg4 mi
11:00 AM97 °FBroken clouds.5 mph53%29.71 "Hg4 mi
10:30 AM93 °FBroken clouds.3 mph59%29.71 "Hg4 mi
10:00 AM91 °FBroken clouds.3 mph67%29.71 "Hg4 mi
9:30 AM90 °FBroken clouds.5 mph71%29.74 "Hg4 mi
9:00 AM88 °FBroken clouds.5 mph75%29.74 "Hg4 mi
8:30 AM86 °FFog.8 mph75%29.74 "Hg3 mi
8:00 AM84 °FFog.8 mph79%29.74 "Hg3 mi
7:30 AM84 °FFog.12 mph84%29.74 "Hg3 mi
7:00 AM86 °FScattered clouds.6 mph79%29.71 "Hg3 mi
6:00 AM86 °FPassing clouds.5 mph79%29.68 "Hg4 mi
5:30 AM86 °FPassing clouds.7 mph79%29.65 "Hg4 mi
5:00 AM86 °FPassing clouds.8 mph79%29.65 "Hg4 mi
4:30 AM86 °FPassing clouds.8 mph79%29.62 "Hg4 mi
4:00 AM86 °FPassing clouds.8 mph79%29.62 "Hg4 mi
3:30 AM88 °FPassing clouds.8 mph75%29.62 "Hg4 mi
3:00 AM88 °FPassing clouds.8 mph75%29.62 "Hg4 mi
2:30 AM88 °FPassing clouds.8 mph79%29.62 "Hg4 mi
2:00 AM88 °FPassing clouds.6 mph79%29.62 "Hg4 mi
1:30 AM88 °FPassing clouds.7 mph84%29.62 "Hg4 mi
1:00 AM88 °FPassing clouds.7 mph84%29.65 "Hg4 mi
12:30 AM88 °FPassing clouds.8 mph84%29.65 "Hg4 mi
12:00 AM88 °FPassing clouds.8 mph84%29.65 "Hg4 mi
11:30 PM
Thu, May 26
90 °FPassing clouds.5 mph75%29.65 "Hg4 mi
11:00 PM90 °FPassing clouds.6 mph71%29.68 "Hg4 mi
10:30 PM90 °FPassing clouds.6 mph71%29.68 "Hg4 mi
10:00 PM90 °FPassing clouds.6 mph75%29.68 "Hg4 mi
9:30 PM91 °FPassing clouds.6 mph71%29.68 "Hg4 mi
9:00 PM91 °FPassing clouds.9 mph67%29.65 "Hg4 mi
8:30 PM91 °FPassing clouds.9 mph67%29.65 "Hg4 mi
8:00 PM91 °FPassing clouds.9 mph63%29.62 "Hg4 mi
7:30 PM91 °FPassing clouds.9 mph63%29.62 "Hg4 mi
7:00 PM93 °FPassing clouds.7 mph59%29.59 "Hg4 mi
6:30 PM93 °FPassing clouds.6 mph59%29.59 "Hg4 mi
6:00 PM95 °FPassing clouds.7 mph56%29.59 "Hg4 mi
5:30 PM95 °FPassing clouds.7 mph53%29.56 "Hg5 mi
5:00 PM97 °FPassing clouds.9 mph50%29.56 "Hg5 mi
4:30 PM97 °FScattered clouds.9 mph53%29.56 "Hg5 mi
4:00 PM97 °FScattered clouds.9 mph53%29.56 "Hg5 mi
3:30 PM99 °FScattered clouds.9 mph47%29.59 "Hg5 mi
3:00 PM100 °FSunny.7 mph45%29.59 "Hg10 mi
2:30 PM102 °FSunny.No wind42%29.59 "Hg10 mi
2:00 PM104 °FSunny.3 mph33%29.59 "Hg10 mi
Weather by CustomWeather, © 2016

See weather overviewHow to use our weather pages